| time (UTC) | temp F | wind direction | speed MPH | gust MPH | rain 1hr in | rain 24hr in | rain mn in | humidity % | barometer mb |
| 20260510192048 | 53 | 322 | 1.0 | 2.0 | 0.00 | 0.00 | 0.00 | 33 | 1010.2 |
| 20260510191148 | 54 | 298 | 1.0 | 2.0 | 0.00 | 0.00 | 0.00 | 30 | 1010.4 |
| 20260510190248 | 56 | 221 | 1.0 | 2.0 | 0.00 | 0.00 | 0.00 | 27 | 1010.1 |
| 20260510185348 | 57 | 181 | 0.0 | 2.0 | 0.00 | 0.00 | 0.00 | 26 | 1010.2 |
| 20260510184448 | 57 | 0 | 0.0 | 0.0 | 0.00 | 0.00 | 0.00 | 24 | 1010.2 |
| 20260510183548 | 58 | 181 | 0.0 | 1.0 | 0.00 | 0.00 | 0.00 | 22 | 1010.2 |
| 20260510182648 | 59 | 187 | 0.0 | 4.0 | 0.00 | 0.00 | 0.00 | 22 | 1010.2 |
| 20260510181748 | 60 | 94 | 1.0 | 4.0 | 0.00 | 0.00 | 0.00 | 21 | 1010.2 |
| 20260510180848 | 60 | 90 | 1.0 | 3.0 | 0.00 | 0.00 | 0.00 | 19 | 1010.2 |
| 20260510175948 | 61 | 72 | 0.0 | 6.0 | 0.00 | 0.00 | 0.00 | 18 | 1010.3 |
| 20260510175048 | 61 | 342 | 1.0 | 4.0 | 0.00 | 0.00 | 0.00 | 17 | 1010.3 |
| 20260510174149 | 62 | 90 | 0.0 | 2.0 | 0.00 | 0.00 | 0.00 | 15 | 1010.3 |
| 20260510173248 | 62 | 90 | 0.0 | 2.0 | 0.00 | 0.00 | 0.00 | 14 | 1010.2 |
| 20260510172348 | 63 | 90 | 0.0 | 3.0 | 0.00 | 0.00 | 0.00 | 13 | 1010.2 |
| 20260510170548 | 65 | 130 | 1.0 | 4.0 | 0.00 | 0.00 | 0.00 | 10 | 1010.4 |
| 20260510165648 | 66 | 4 | 2.0 | 4.0 | 0.00 | 0.00 | 0.00 | 10 | 1010.4 |
| 20260510164748 | 67 | 80 | 1.0 | 8.0 | 0.00 | 0.00 | 0.00 | 10 | 1010.4 |
| 20260510163848 | 69 | 245 | 4.0 | 8.0 | 0.00 | 0.00 | 0.00 | 10 | 1010.4 |
| 20260510161148 | 72 | 136 | 2.0 | 5.0 | 0.00 | 0.00 | 0.00 | 10 | 1010.7 |
| 20260510160248 | 71 | 155 | 2.0 | 7.0 | 0.00 | 0.00 | 0.00 | 10 | 1011.0 |
| 20260510155348 | 71 | 132 | 1.0 | 4.0 | 0.00 | 0.00 | 0.00 | 10 | 1011.2 |
| 20260510154448 | 70 | 302 | 2.0 | 4.0 | 0.00 | 0.00 | 0.00 | 10 | 1011.2 |
| 20260510151748 | 75 | 86 | 2.0 | 5.0 | 0.00 | 0.00 | 0.00 | 10 | 1011.6 |
| 20260510150848 | 74 | 1 | 2.0 | 8.0 | 0.00 | 0.00 | 0.00 | 10 | 1011.8 |
| 20260510145948 | 76 | 58 | 2.0 | 8.0 | 0.00 | 0.00 | 0.00 | 10 | 1011.9 |
| 20260510145048 | 75 | 103 | 2.0 | 4.0 | 0.00 | 0.00 | 0.00 | 10 | 1012.2 |
| 20260510144148 | 73 | 90 | 0.0 | 3.0 | 0.00 | 0.00 | 0.00 | 10 | 1012.3 |
| 20260510143248 | 72 | 90 | 1.0 | 3.0 | 0.00 | 0.00 | 0.00 | 10 | 1012.4 |
| 20260510142350 | 73 | 49 | 2.0 | 6.0 | 0.00 | 0.00 | 0.00 | 10 | 1012.5 |
| 20260510141452 | 73 | 320 | 2.0 | 4.0 | 0.00 | 0.00 | 0.00 | 10 | 1012.5 |
| 20260510140548 | 71 | 314 | 2.0 | 4.0 | 0.00 | 0.00 | 0.00 | 10 | 1012.7 |
| 20260510134748 | 71 | 62 | 2.0 | 5.0 | 0.00 | 0.00 | 0.00 | 10 | 1012.9 |
| 20260510133852 | 71 | 133 | 0.0 | 5.0 | 0.00 | 0.00 | 0.00 | 10 | 1012.8 |
| 20260510132048 | 72 | 96 | 1.0 | 4.0 | 0.00 | 0.00 | 0.00 | 10 | 1013.0 |
| 20260510131148 | 72 | 106 | 2.0 | 4.0 | 0.00 | 0.00 | 0.00 | 10 | 1013.1 |
| 20260510130251 | 71 | 105 | 2.0 | 5.0 | 0.00 | 0.00 | 0.00 | 10 | 1013.2 |
| 20260510125348 | 71 | 110 | 2.0 | 6.0 | 0.00 | 0.00 | 0.00 | 10 | 1013.4 |
| 20260510124450 | 70 | 314 | 2.0 | 5.0 | 0.00 | 0.00 | 0.00 | 10 | 1013.2 |
| 20260510123551 | 71 | 86 | 2.0 | 6.0 | 0.00 | 0.00 | 0.00 | 10 | 1013.5 |
| 20260510122648 | 72 | 69 | 2.0 | 7.0 | 0.00 | 0.00 | 0.00 | 10 | 1013.8 |
| 20260510121752 | 71 | 6 | 2.0 | 5.0 | 0.00 | 0.00 | 0.00 | 10 | 1013.9 |
| 20260510120848 | 71 | 77 | 2.0 | 8.0 | 0.00 | 0.00 | 0.00 | 10 | 1014.0 |
| 20260510115948 | 71 | 40 | 3.0 | 8.0 | 0.00 | 0.00 | 0.00 | 10 | 1013.8 |
| 20260510115048 | 71 | 40 | 3.0 | 8.0 | 0.00 | 0.00 | 0.00 | 10 | 1013.9 |
| 20260510114148 | 71 | 319 | 2.0 | 6.0 | 0.00 | 0.00 | 0.00 | 10 | 1014.1 |
| 20260510113248 | 71 | 250 | 1.0 | 5.0 | 0.00 | 0.00 | 0.00 | 10 | 1014.4 |
| 20260510112348 | 71 | 336 | 2.0 | 7.0 | 0.00 | 0.00 | 0.00 | 10 | 1014.5 |
| 20260510111448 | 70 | 323 | 2.0 | 6.0 | 0.00 | 0.00 | 0.00 | 10 | 1014.7 |
| 20260510110548 | 70 | 154 | 2.0 | 7.0 | 0.00 | 0.00 | 0.00 | 10 | 1014.9 |
| 20260510105648 | 70 | 51 | 2.0 | 8.0 | 0.00 | 0.00 | 0.00 | 10 | 1014.8 |
| 20260510104748 | 69 | 104 | 2.0 | 5.0 | 0.00 | 0.00 | 0.00 | 10 | 1015.0 |
| 20260510103848 | 68 | 104 | 2.0 | 8.0 | 0.00 | 0.00 | 0.00 | 10 | 1015.2 |
| 20260510102948 | 69 | 125 | 2.0 | 7.0 | 0.00 | 0.00 | 0.00 | 12 | 1015.3 |
| 20260510102048 | 69 | 126 | 3.0 | 8.0 | 0.00 | 0.00 | 0.00 | 12 | 1015.4 |
| 20260510101148 | 68 | 114 | 2.0 | 5.0 | 0.00 | 0.00 | 0.00 | 13 | 1015.3 |
| 20260510100248 | 69 | 99 | 2.0 | 4.0 | 0.00 | 0.00 | 0.00 | 12 | 1015.4 |
| 20260510095348 | 69 | 133 | 2.0 | 6.0 | 0.00 | 0.00 | 0.00 | 13 | 1015.7 |
| 20260510094448 | 68 | 140 | 1.0 | 5.0 | 0.00 | 0.00 | 0.00 | 14 | 1015.5 |
| 20260510093548 | 67 | 111 | 2.0 | 5.0 | 0.00 | 0.00 | 0.00 | 16 | 1015.7 |
| 20260510092648 | 67 | 117 | 1.0 | 8.0 | 0.00 | 0.00 | 0.00 | 16 | 1015.7 |
| 20260510091748 | 67 | 149 | 4.0 | 8.0 | 0.00 | 0.00 | 0.00 | 15 | 1015.8 |
| 20260510085948 | 66 | 95 | 2.0 | 5.0 | 0.00 | 0.00 | 0.00 | 18 | 1016.1 |
| 20260510085048 | 67 | 64 | 1.0 | 4.0 | 0.00 | 0.00 | 0.00 | 15 | 1016.1 |
| 20260510084148 | 66 | 174 | 0.0 | 8.0 | 0.00 | 0.00 | 0.00 | 17 | 1016.4 |
| 20260510083248 | 65 | 129 | 1.0 | 8.0 | 0.00 | 0.00 | 0.00 | 17 | 1016.3 |
| 20260510082348 | 66 | 228 | 1.0 | 5.0 | 0.00 | 0.00 | 0.00 | 15 | 1016.3 |
| 20260510081448 | 65 | 199 | 2.0 | 5.0 | 0.00 | 0.00 | 0.00 | 17 | 1016.4 |
| 20260510080548 | 65 | 325 | 2.0 | 4.0 | 0.00 | 0.00 | 0.00 | 17 | 1016.5 |
| 20260510075648 | 65 | 321 | 1.0 | 3.0 | 0.00 | 0.00 | 0.00 | 17 | 1016.6 |
| 20260510074748 | 64 | 181 | 2.0 | 4.0 | 0.00 | 0.00 | 0.00 | 18 | 1016.7 |
| 20260510073848 | 63 | 263 | 2.0 | 5.0 | 0.00 | 0.00 | 0.00 | 18 | 1016.7 |
| 20260510072948 | 63 | 7 | 1.0 | 5.0 | 0.00 | 0.00 | 0.00 | 18 | 1016.7 |
| 20260510072048 | 62 | 253 | 1.0 | 5.0 | 0.00 | 0.00 | 0.00 | 20 | 1016.8 |
| 20260510071148 | 62 | 297 | 1.0 | 4.0 | 0.00 | 0.00 | 0.00 | 23 | 1017.0 |
| 20260510070248 | 60 | 310 | 0.0 | 6.0 | 0.00 | 0.00 | 0.00 | 24 | 1017.0 |
| 20260510065348 | 60 | 146 | 1.0 | 5.0 | 0.00 | 0.00 | 0.00 | 23 | 1017.0 |
| 20260510064448 | 61 | 154 | 2.0 | 5.0 | 0.00 | 0.00 | 0.00 | 22 | 1017.0 |
| 20260510061748 | 60 | 330 | 1.0 | 4.0 | 0.00 | 0.00 | 0.00 | 27 | 1017.2 |
| 20260510060848 | 61 | 314 | 0.0 | 2.0 | 0.00 | 0.00 | 0.00 | 28 | 1017.6 |
| 20260510055948 | 59 | 80 | 0.0 | 3.0 | 0.00 | 0.00 | 0.00 | 36 | 1017.4 |
| 20260510055048 | 58 | 120 | 2.0 | 4.0 | 0.00 | 0.00 | 0.00 | 35 | 1017.5 |
| 20260510053248 | 58 | 1 | 2.0 | 3.0 | 0.00 | 0.00 | 0.00 | 38 | 1017.7 |
| 20260510052347 | 58 | 1 | 1.0 | 2.0 | 0.00 | 0.00 | 0.00 | 46 | 1017.8 |
| 20260510051447 | 57 | 353 | 0.0 | 2.0 | 0.00 | 0.00 | 0.00 | 63 | 1017.9 |
| 20260510050548 | 56 | 314 | 1.0 | 2.0 | 0.00 | 0.00 | 0.00 | 82 | 1017.8 |
| 20260510045648 | 54 | 0 | 0.0 | 0.0 | 0.00 | 0.00 | 0.00 | 99 | 1017.8 |
| 20260510044748 | 51 | 314 | 0.0 | 1.0 | 0.00 | 0.00 | 0.00 | 99 | 1017.8 |
| 20260510043848 | 48 | 314 | 0.0 | 1.0 | 0.00 | 0.00 | 0.00 | 99 | 1017.7 |
| 20260510042947 | 46 | 314 | 0.0 | 1.0 | 0.00 | 0.00 | 0.00 | 99 | 1017.9 |
| 20260510042047 | 44 | 314 | 0.0 | 1.0 | 0.00 | 0.00 | 0.00 | 99 | 1017.8 |
| 20260510041147 | 42 | 314 | 0.0 | 1.0 | 0.00 | 0.00 | 0.00 | 99 | 1017.7 |
| 20260510040247 | 39 | 0 | 0.0 | 0.0 | 0.00 | 0.00 | 0.00 | 97 | 1017.7 |
| 20260510034447 | 36 | 1 | 0.0 | 1.0 | 0.00 | 0.00 | 0.00 | 94 | 1017.8 |
| 20260510033548 | 35 | 1 | 0.0 | 1.0 | 0.00 | 0.00 | 0.00 | 93 | 1017.8 |
| 20260510032647 | 35 | 1 | 0.0 | 1.0 | 0.00 | 0.00 | 0.00 | 93 | 1017.8 |
| 20260510031747 | 36 | 0 | 0.0 | 0.0 | 0.00 | 0.00 | 0.00 | 92 | 1017.9 |
| 20260510030848 | 36 | 1 | 0.0 | 1.0 | 0.00 | 0.00 | 0.00 | 92 | 1017.9 |
| 20260510025948 | 36 | 1 | 0.0 | 1.0 | 0.00 | 0.00 | 0.00 | 92 | 1018.0 |
| 20260510025047 | 36 | 1 | 0.0 | 1.0 | 0.00 | 0.00 | 0.00 | 91 | 1018.0 |
| 20260510023247 | 36 | 1 | 0.0 | 1.0 | 0.00 | 0.00 | 0.00 | 91 | 1018.1 |
| 20260510021447 | 36 | 1 | 0.0 | 1.0 | 0.00 | 0.00 | 0.00 | 90 | 1018.0 |
| 20260510015648 | 36 | 0 | 0.0 | 0.0 | 0.00 | 0.00 | 0.00 | 89 | 1017.9 |
| 20260510014747 | 37 | 0 | 0.0 | 0.0 | 0.00 | 0.00 | 0.00 | 89 | 1018.2 |
| 20260510013848 | 37 | 331 | 0.0 | 1.0 | 0.00 | 0.00 | 0.00 | 89 | 1018.2 |
| 20260510012047 | 37 | 1 | 0.0 | 1.0 | 0.00 | 0.00 | 0.00 | 88 | 1018.3 |
| 20260510011147 | 37 | 314 | 0.0 | 1.0 | 0.00 | 0.00 | 0.00 | 88 | 1018.5 |
| 20260510010247 | 37 | 335 | 0.0 | 2.0 | 0.00 | 0.00 | 0.00 | 86 | 1018.6 |
| 20260510005347 | 37 | 349 | 0.0 | 1.0 | 0.00 | 0.00 | 0.00 | 86 | 1018.6 |
| 20260510004447 | 38 | 234 | 0.0 | 2.0 | 0.00 | 0.00 | 0.00 | 86 | 1018.6 |
| 20260510003548 | 38 | 225 | 0.0 | 2.0 | 0.00 | 0.00 | 0.00 | 85 | 1018.6 |
| 20260510001747 | 38 | 225 | 0.0 | 1.0 | 0.00 | 0.00 | 0.00 | 84 | 1018.6 |
| 20260510000847 | 38 | 225 | 0.0 | 1.0 | 0.00 | 0.00 | 0.00 | 84 | 1018.8 |
| 20260509235948 | 38 | 225 | 0.0 | 1.0 | 0.00 | 0.00 | 0.00 | 83 | 1018.9 |
| 20260509235047 | 39 | 221 | 0.0 | 2.0 | 0.00 | 0.00 | 0.00 | 83 | 1019.0 |
| 20260509234147 | 39 | 225 | 0.0 | 2.0 | 0.00 | 0.00 | 0.00 | 82 | 1019.2 |
| 20260509233247 | 39 | 225 | 0.0 | 1.0 | 0.00 | 0.00 | 0.00 | 82 | 1019.3 |
| 20260509232347 | 39 | 225 | 0.0 | 2.0 | 0.00 | 0.00 | 0.00 | 82 | 1019.4 |
| 20260509231447 | 39 | 225 | 0.0 | 2.0 | 0.00 | 0.00 | 0.00 | 81 | 1019.5 |
| 20260509230547 | 39 | 225 | 0.0 | 2.0 | 0.00 | 0.00 | 0.00 | 79 | 1019.6 |
| 20260509224748 | 39 | 225 | 0.0 | 2.0 | 0.00 | 0.00 | 0.00 | 78 | 1019.7 |
| 20260509223847 | 40 | 225 | 0.0 | 1.0 | 0.00 | 0.00 | 0.00 | 77 | 1019.8 |
| 20260509222947 | 40 | 225 | 0.0 | 2.0 | 0.00 | 0.00 | 0.00 | 77 | 1019.7 |
| 20260509222047 | 40 | 225 | 0.0 | 2.0 | 0.00 | 0.00 | 0.00 | 76 | 1019.7 |
| 20260509221147 | 40 | 314 | 0.0 | 1.0 | 0.00 | 0.00 | 0.00 | 75 | 1019.7 |
| 20260509220247 | 41 | 314 | 0.0 | 2.0 | 0.00 | 0.00 | 0.00 | 74 | 1019.6 |
| 20260509215347 | 41 | 315 | 0.0 | 2.0 | 0.00 | 0.00 | 0.00 | 74 | 1019.7 |
| 20260509214447 | 41 | 315 | 0.0 | 2.0 | 0.00 | 0.00 | 0.00 | 73 | 1019.6 |
| 20260509213547 | 41 | 314 | 0.0 | 2.0 | 0.00 | 0.00 | 0.00 | 72 | 1019.7 |
| 20260509212647 | 42 | 314 | 0.0 | 2.0 | 0.00 | 0.00 | 0.00 | 71 | 1019.7 |
| 20260509211747 | 42 | 314 | 0.0 | 2.0 | 0.00 | 0.00 | 0.00 | 70 | 1019.8 |
| 20260509210848 | 42 | 314 | 0.0 | 2.0 | 0.00 | 0.00 | 0.00 | 69 | 1020.1 |
| 20260509205947 | 42 | 314 | 0.0 | 1.0 | 0.00 | 0.00 | 0.00 | 68 | 1019.9 |
| 20260509205047 | 43 | 335 | 0.0 | 2.0 | 0.00 | 0.00 | 0.00 | 68 | 1019.9 |
| 20260509204147 | 43 | 338 | 0.0 | 2.0 | 0.00 | 0.00 | 0.00 | 67 | 1019.9 |
| 20260509203247 | 43 | 325 | 0.0 | 2.0 | 0.00 | 0.00 | 0.00 | 66 | 1019.9 |
| 20260509201447 | 44 | 314 | 0.0 | 2.0 | 0.00 | 0.00 | 0.00 | 66 | 1019.7 |
| 20260509200547 | 45 | 314 | 0.0 | 2.0 | 0.00 | 0.00 | 0.00 | 62 | 1019.8 |
| 20260509195647 | 45 | 315 | 0.0 | 2.0 | 0.00 | 0.00 | 0.00 | 61 | 1019.9 |
| 20260509194747 | 46 | 314 | 0.0 | 2.0 | 0.00 | 0.00 | 0.00 | 55 | 1019.7 |